Wind_Speed
4 3 3 2 2 1 1 0 1 1 1 1 1 1 2 2 2 2 3 3 3 2 2 3 3 4 4 5 4 5 5 5 5 5 5 5 4 4 4 4 4 4 4
4 3 2 1 1 0 0 1 1 0 1 2 2 2 2 2 2 3 3 3 3 3 3 3 3 4 5 5 5 5 5 6 6 6 5 6 6 5 6 5 6 6 6
4 3 2 1 1 1 1 1 1 1 2 2 2 2 2 2 2 2 2 3 3 3 3 3 3 4 5 5 5 5 5 5 5 5 5 5 6 7 7 7 7 8 7
5 4 3 2 1 1 0 1 2 2 2 2 3 3 2 3 3 2 2 3 3 3 3 3 4 4 5 5 5 5 5 5 6 6 6 6 7 7 8 8 8 8 8
5 5 4 2 1 1 1 2 2 2 2 2 3 3 3 3 3 3 2 3 3 3 3 4 4 4 5 5 6 6 6 6 6 7 8 8 8 8 8 9 8 8 8
7 6 4 3 2 2 2 3 4 3 3 3 3 3 3 3 3 3 2 3 4 4 4 5 5 5 6 6 6 7 7 8 8 9 10 10 9 9 9 10 10 10 9
8 7 5 4 3 3 3 4 4 4 3 3 4 4 3 3 3 3 3 3 4 5 5 6 6 6 6 6 7 7 7 8 9 9 10 10 10 11 11 11 11 10 10
8 7 6 5 4 4 4 4 4 4 4 5 5 4 4 4 3 4 4 4 4 5 6 6 7 7 6 6 7 8 9 9 10 10 10 10 11 12 12 12 11 11 11
9 9 8 6 5 5 5 5 5 5 5 5 5 5 5 5 4 4 5 5 5 6 6 7 7 7 7 8 9 10 10 10 10 10 11 12 12 12 12 12 13 12 12
8 8 8 8 7 6 6 6 6 6 6 5 6 6 6 6 5 5 5 5 6 6 7 7 7 7 7 8 9 10 11 11 11 12 12 13 13 12 11 12 13 12 13
9 9 8 8 7 7 6 6 7 6 6 6 6 6 6 6 6 6 6 6 7 7 8 8 7 7 8 8 9 11 12 12 11 11 12 12 12 11 11 12 13 13 14
9 9 9 8 8 7 7 7 7 6 6 6 6 7 7 7 7 7 7 8 8 8 8 8 9 8 9 9 10 10 11 11 11 11 12 12 11 11 12 13 13 14 14
9 9 9 8 8 7 7 7 7 7 6 7 7 7 7 8 8 9 8 8 9 9 9 9 9 9 9 10 10 10 11 11 11 11 11 11 11 12 12 13 14 14 14
9 9 9 8 7 7 7 7 7 7 7 7 7 8 8 8 9 9 9 9 9 10 10 10 10 10 10 10 10 10 11 11 10 10 10 11 11 12 13 14 14 15 16
8 9 9 8 8 8 7 7 7 7 7 8 8 8 9 9 9 10 10 10 10 12 12 11 12 12 11 11 11 11 11 11 11 11 11 12 13 13 14 15 15 16 17
9 9 9 8 8 8 8 8 8 8 8 9 9 10 10 10 11 11 11 10 11 12 12 12 13 13 13 13 12 12 11 12 12 13 12 13 13 14 14 16 17 18 18
10 10 10 10 9 9 9 9 9 9 9 9 10 10 11 11 11 12 12 11 11 12 12 13 13 13 14 13 13 13 13 13 13 13 14 14 15 15 16 16 17 18 19
11 10 10 10 10 10 10 10 10 10 11 11 11 11 12 11 11 12 13 13 14 14 13 13 14 14 14 14 15 15 15 15 15 15 16 16 16 16 17 18 19 19 20
12 11 11 11 11 11 11 11 12 12 12 13 12 12 12 12 12 13 13 13 14 14 14 14 14 15 16 16 15 15 15 15 16 17 18 18 18 18 18 19 20 21 21
13 13 12 12 12 12 12 12 12 13 13 14 13 13 13 13 13 13 13 13 14 15 15 15 16 16 16 16 15 15 16 16 17 18 19 19 19 19 20 21 22 22 22
14 14 13 13 13 14 13 13 14 14 14 15 14 14 14 14 15 15 15 15 15 16 16 17 18 18 17 17 16 17 18 19 19 19 20 20 20 21 21 22 23 23 24
15 15 15 15 15 15 14 15 15 16 16 16 16 15 16 16 16 16 16 17 18 18 19 19 19 19 19 18 18 18 19 20 21 21 22 22 23 23 22 23 24 25 25
17 17 16 17 17 16 16 16 16 17 17 17 17 17 17 17 17 17 17 18 19 20 20 20 20 19 19 19 19 20 21 21 22 23 23 23 23 24 25 25 25 26 27
19 18 18 18 18 18 18 18 18 18 18 19 18 18 19 19 19 19 19 19 19 20 21 21 20 20 20 20 20 21 23 23 23 23 24 24 24 25 26 26 26 26 27
20 20 20 20 19 19 19 19 20 20 20 20 20 20 20 20 20 20 20 19 20 20 21 22 21 21 21 21 22 23 23 24 24 24 25 26 26 26 27 27 28 28 29
21 21 21 21 21 21 20 20 21 21 21 21 21 21 21 21 21 21 20 21 21 21 21 21 22 22 22 22 23 24 24 25 25 25 26 27 27 28 28 29 29 30 30
Wind_Direction
77 95 109 117 119 111 124 71 48 81 35 15 332 298 265 255 269 259 253 253 250 250 248 250 252 248 251 244 249 252 252 258 254 248 239 237 237 238 248 241 252 261 279
58 68 94 92 89 114 56 60 43 16 342 340 325 314 311 282 271 259 264 257 254 255 254 256 264 256 257 254 257 257 257 261 256 249 243 243 244 244 253 256 261 267 271
48 32 37 43 30 17 44 35 353 326 321 323 316 312 306 309 291 271 271 264 252 254 252 264 268 265 261 260 263 263 262 260 254 250 243 248 247 251 256 256 259 263 263
38 23 15 13 34 56 48 331 340 328 312 303 290 288 289 297 299 292 268 265 266 268 266 275 273 266 263 267 270 265 260 265 260 252 253 255 261 261 261 260 261 261 263
28 20 18 23 34 31 339 324 334 323 318 314 306 294 273 277 287 289 282 269 266 269 271 274 273 268 270 277 277 269 267 266 266 257 257 260 267 263 265 262 262 264 267
28 26 26 28 1 347 330 323 320 314 309 310 314 308 276 274 276 266 271 279 269 265 265 271 269 269 270 279 284 277 272 269 266 261 259 266 268 267 266 265 263 266 269
30 29 24 18 357 335 322 316 312 309 306 309 311 315 308 285 269 263 269 276 272 262 262 267 268 272 278 283 283 279 279 277 267 263 263 270 272 268 268 266 267 268 270
25 22 19 10 5 357 348 338 323 319 318 315 312 307 303 301 283 272 276 278 272 268 270 272 273 276 282 287 286 283 279 275 267 265 265 272 277 273 268 267 269 269 271
19 16 12 9 3 355 348 339 331 320 316 315 309 304 297 295 292 294 297 291 282 279 275 275 277 281 283 282 284 282 279 273 269 269 271 273 278 273 267 268 269 268 272
14 12 9 8 3 351 342 337 333 322 315 311 308 309 303 302 297 299 299 294 291 288 284 282 281 284 284 279 277 278 281 279 278 274 275 277 278 277 274 272 272 271 275
9 5 3 3 3 357 349 337 330 326 320 315 312 314 310 307 299 293 292 291 291 292 292 292 289 287 283 281 283 285 286 286 283 279 282 283 281 278 276 277 275 274 274
359 356 352 352 352 349 346 343 334 330 326 324 319 310 308 305 303 298 298 295 292 292 295 296 295 292 289 289 291 294 293 289 290 291 290 287 283 279 277 278 278 278 277
354 351 348 346 344 343 344 342 340 337 331 332 332 327 316 307 306 301 294 293 289 289 292 294 293 292 295 297 297 298 295 294 293 293 289 285 281 281 281 279 279 280 282
351 349 346 344 343 343 341 341 338 336 331 329 331 330 327 316 311 304 298 294 292 290 289 289 291 291 293 293 293 295 294 292 291 293 290 287 286 287 286 284 283 283 285
348 347 346 342 342 341 336 336 332 325 322 320 323 324 324 320 313 307 298 296 292 289 291 289 289 287 287 288 287 289 291 294 295 294 291 291 289 288 287 286 286 286 286
341 339 339 337 335 338 337 332 329 327 321 316 315 315 315 316 314 310 300 298 298 295 289 291 291 288 288 288 288 291 294 292 293 294 290 289 291 292 291 288 286 287 288
333 332 330 332 331 331 332 329 328 327 324 317 312 308 309 312 311 310 306 300 300 301 296 292 292 291 290 289 290 292 292 291 290 290 291 291 291 292 293 291 289 289 289
328 326 325 325 328 328 329 330 329 325 324 320 314 310 307 306 310 307 304 301 301 298 297 292 289 289 289 287 290 290 289 290 289 289 289 289 291 292 292 292 292 291 291
323 324 321 320 319 319 323 325 325 326 326 326 321 315 309 304 305 306 303 302 304 304 300 297 293 293 292 291 289 289 289 289 289 290 289 289 290 291 292 292 292 292 291
316 318 317 316 315 313 313 315 317 319 320 321 321 320 316 309 303 303 304 303 302 303 302 301 299 298 296 293 291 291 291 290 292 293 293 292 293 293 292 292 291 291 290
310 310 310 310 311 310 309 310 312 313 314 315 316 315 313 310 303 300 302 303 302 300 299 298 297 299 297 295 293 295 294 293 293 293 292 291 292 293 293 293 294 293 292
306 307 306 304 305 305 305 306 307 308 309 310 312 313 314 310 306 300 298 299 297 299 299 299 296 296 297 295 292 294 294 295 296 296 295 294 292 292 292 293 294 293 293
303 304 305 305 303 301 301 302 302 305 306 308 308 309 311 311 307 304 300 298 298 299 298 298 298 297 298 296 294 294 295 296 297 297 296 296 294 293 293 294 295 295 295
300 301 302 302 300 299 299 300 301 301 302 303 304 304 305 306 307 303 302 301 301 300 299 299 298 298 297 296 294 294 294 295 296 297 298 297 295 296 295 295 295 296 296
296 298 299 299 299 298 298 299 299 299 298 299 300 301 303 303 303 302 302 303 304 303 302 301 298 298 296 296 296 294 294 296 297 297 297 296 295 295 295 295 294 295 296
293 295 297 298 298 296 294 296 298 298 297 296 297 299 301 302 302 301 301 302 303 303 302 300 299 295 294 294 296 296 296 297 298 298 298 296 295 295 295 295 295 297 297
Height
5886 5886 5887 5887 5888 5888 5888 5889 5889 5889 5889 5889 5889 5890 5890 5890 5890 5891 5891 5891 5892 5892 5893 5893 5894 5894 5895 5896 5896 5897 5897 5897 5897 5898 5898 5899 5899 5900 5901 5901 5901 5902 5902
5887 5887 5887 5887 5888 5888 5888 5889 5889 5889 5889 5889 5889 5889 5889 5890 5890 5890 5890 5891 5891 5891 5892 5892 5893 5894 5894 5895 5895 5896 5896 5896 5896 5897 5897 5898 5898 5899 5900 5900 5900 5900 5901
5888 5887 5887 5888 5888 5888 5888 5889 5889 5889 5889 5889 5889 5889 5889 5889 5889 5889 5890 5890 5890 5891 5891 5892 5892 5893 5893 5894 5894 5894 5895 5895 5895 5895 5896 5897 5897 5898 5898 5898 5899 5899 5899
5888 5888 5888 5888 5888 5888 5889 5889 5889 5889 5889 5889 5889 5889 5889 5889 5889 5889 5889 5889 5890 5890 5891 5891 5892 5892 5893 5893 5893 5893 5894 5894 5894 5894 5895 5896 5896 5896 5897 5897 5897 5897 5897
5889 5888 5888 5888 5888 5889 5889 5889 5889 5889 5888 5888 5887 5887 5888 5888 5888 5888 5888 5888 5889 5890 5890 5890 5891 5891 5891 5892 5892 5892 5892 5893 5893 5893 5894 5894 5894 5894 5895 5895 5895 5895 5895
5889 5889 5888 5888 5888 5888 5889 5888 5888 5888 5888 5888 5887 5887 5887 5887 5887 5887 5888 5888 5888 5888 5889 5889 5890 5890 5890 5890 5890 5890 5891 5891 5891 5891 5891 5892 5892 5892 5893 5893 5893 5893 5893
5890 5890 5889 5888 5888 5888 5888 5888 5888 5888 5887 5887 5887 5886 5886 5886 5886 5886 5887 5887 5887 5887 5888 5888 5888 5889 5889 5888 5888 5889 5889 5889 5889 5889 5889 5890 5890 5890 5890 5890 5890 5891 5891
5891 5890 5890 5889 5888 5888 5888 5887 5887 5887 5887 5886 5886 5885 5885 5886 5885 5885 5885 5886 5886 5886 5886 5886 5887 5887 5887 5887 5887 5887 5887 5887 5887 5887 5887 5887 5887 5887 5887 5888 5888 5888 5888
5892 5891 5890 5889 5888 5888 5887 5887 5886 5886 5886 5885 5885 5885 5885 5884 5884 5884 5884 5884 5884 5884 5885 5885 5885 5885 5885 5885 5885 5884 5884 5884 5884 5885 5885 5885 5884 5884 5884 5884 5885 5885 5885
5893 5892 5890 5889 5888 5887 5887 5886 5885 5885 5885 5884 5884 5884 5884 5883 5883 5883 5883 5883 5883 5883 5883 5883 5883 5883 5883 5883 5882 5882 5882 5882 5882 5882 5882 5882 5881 5881 5881 5881 5881 5881 5881
5893 5892 5890 5889 5888 5887 5886 5886 5885 5884 5884 5883 5883 5883 5882 5882 5882 5882 5882 5882 5882 5881 5881 5881 5881 5881 5880 5880 5880 5880 5880 5880 5880 5879 5879 5878 5878 5878 5878 5878 5878 5878 5878
5893 5892 5891 5889 5888 5887 5886 5885 5884 5883 5883 5882 5882 5881 5881 5881 5880 5880 5880 5880 5880 5880 5879 5879 5879 5879 5878 5878 5878 5878 5878 5877 5877 5876 5876 5876 5875 5875 5875 5875 5874 5874 5874
5893 5892 5890 5889 5888 5887 5886 5885 5884 5883 5882 5882 5881 5880 5879 5879 5879 5878 5878 5878 5878 5877 5877 5877 5876 5876 5876 5876 5876 5875 5875 5875 5874 5874 5873 5873 5872 5872 5872 5871 5871 5870 5870
5893 5892 5890 5889 5888 5887 5886 5885 5884 5882 5881 5881 5880 5879 5878 5878 5877 5876 5876 5876 5876 5875 5875 5875 5874 5874 5874 5874 5873 5873 5872 5872 5871 5871 5870 5870 5869 5869 5868 5868 5867 5867 5866
5893 5891 5890 5889 5887 5886 5885 5884 5883 5882 5881 5880 5879 5878 5877 5876 5875 5875 5874 5874 5874 5873 5873 5872 5872 5871 5871 5871 5870 5869 5869 5868 5868 5867 5867 5866 5866 5865 5864 5864 5863 5862 5862
5893 5891 5889 5888 5887 5885 5884 5883 5882 5881 5880 5878 5877 5877 5876 5875 5874 5873 5872 5871 5871 5871 5870 5869 5868 5868 5868 5867 5867 5866 5865 5865 5864 5864 5863 5862 5862 5861 5860 5859 5858 5857 5856
5892 5891 5889 5887 5886 5885 5883 5882 5881 5879 5878 5877 5876 5875 5874 5873 5872 5871 5870 5869 5868 5868 5867 5866 5865 5864 5864 5863 5863 5862 5862 5861 5861 5860 5859 5858 5857 5856 5855 5854 5854 5853 5851
5891 5890 5888 5886 5885 5883 5882 5881 5879 5878 5877 5875 5874 5873 5871 5870 5869 5868 5867 5866 5865 5864 5864 5863 5862 5861 5861 5860 5859 5858 5858 5857 5856 5856 5855 5853 5853 5852 5850 5849 5848 5847 5846
5889 5888 5886 5885 5884 5882 5881 5879 5878 5876 5875 5873 5872 5870 5869 5868 5867 5865 5864 5864 5863 5862 5861 5860 5859 5858 5857 5856 5855 5854 5853 5853 5852 5851 5850 5849 5847 5846 5845 5844 5843 5841 5840
5887 5886 5884 5883 5882 5880 5879 5877 5876 5874 5873 5871 5869 5868 5866 5865 5864 5863 5861 5860 5859 5858 5857 5856 5855 5854 5853 5852 5851 5850 5849 5849 5848 5847 5845 5844 5842 5841 5840 5839 5837 5835 5833
5885 5884 5882 5881 5879 5878 5876 5875 5873 5872 5870 5868 5867 5865 5864 5862 5860 5859 5858 5857 5856 5855 5853 5852 5851 5850 5849 5848 5847 5846 5845 5844 5843 5841 5840 5838 5837 5835 5834 5832 5830 5828 5827
5882 5881 5879 5878 5876 5875 5873 5872 5870 5869 5867 5865 5864 5862 5860 5858 5857 5856 5854 5853 5852 5851 5850 5848 5847 5846 5844 5843 5842 5841 5840 5839 5837 5836 5834 5833 5831 5830 5828 5826 5824 5822 5820
5879 5877 5876 5874 5873 5871 5870 5868 5867 5865 5863 5862 5860 5858 5857 5855 5853 5852 5850 5849 5848 5846 5845 5844 5842 5841 5840 5838 5837 5836 5834 5833 5831 5830 5828 5826 5825 5823 5821 5819 5817 5815 5813
5874 5873 5872 5870 5869 5867 5866 5864 5863 5861 5859 5857 5856 5854 5853 5851 5849 5847 5846 5844 5843 5841 5840 5838 5837 5835 5834 5833 5831 5830 5828 5827 5825 5823 5821 5819 5818 5816 5814 5812 5810 5808 5805
5870 5868 5867 5865 5864 5863 5861 5860 5858 5856 5854 5853 5851 5849 5848 5846 5844 5843 5841 5840 5838 5836 5835 5833 5831 5830 5828 5827 5825 5824 5822 5820 5819 5817 5814 5812 5810 5808 5806 5804 5802 5800 5797
5864 5863 5862 5861 5859 5858 5856 5855 5853 5851 5849 5847 5846 5844 5842 5841 5839 5837 5836 5835 5833 5831 5829 5828 5826 5824 5823 5821 5819 5817 5815 5814 5812 5810 5808 5805 5803 5801 5799 5796 5794 5792 5789